Station Historical Data
Daily Summary for August 2, 2017 Units:  Metric    English   Both
« Previous Day
Next Day »
Daily Weekly Monthly Yearly Custom
  High: Low: Average:
Temperature: 29.5 °C 19.3 °C 23.6 °C
Dew Point: 19.7 °C 14.9 °C 17.7 °C
Humidity: 88% 44% 71%
Wind Speed: 14.8km/h 0km/h 5.3km/h
Wind Gust: 3.7km/h - -
Wind- - WSW
Pressure: 1020.5 hPa 1017.2 hPa -
Precipitation: 0 mm    
Historical Graphs
 
 
Tabular Data for August 2, 2017
Time Temperature Dew Point Pressure Wind Wind Speed Wind Gust Humidity Rainfall Rate (Hourly) solar Conditions
00:00 22.4 °C 17.3 °C 1018.5 hPa Calm     73% 0 mm WeatherDisplay:10.37 W/m2 RA
00:05 22.4 °C 17.3 °C 1018.5 hPa North 14.8 km/h   73% 0 mm WeatherDisplay:10.37 W/m2 BKN
00:10 22.3 °C 17.7 °C 1018.5 hPa Calm     75% 0 mm WeatherDisplay:10.37 W/m2 BKN
00:15 22.3 °C 17.7 °C 1018.8 hPa Calm     75% 0 mm WeatherDisplay:10.37 W/m2 BKN
00:20 22.2 °C 17.6 °C 1018.8 hPa North 14.8 km/h   75% 0 mm WeatherDisplay:10.37 W/m2 BKN
00:25 22.2 °C 17.5 °C 1018.8 hPa Calm     75% 0 mm WeatherDisplay:10.37 W/m2 CLR
00:30 22.1 °C 17.4 °C 1018.5 hPa Calm     75% 0 mm WeatherDisplay:10.37 W/m2 CLR
00:35 21.9 °C 17.3 °C 1018.8 hPa Calm     75% 0 mm WeatherDisplay:10.37 W/m2 CLR
00:40 21.9 °C 17.3 °C 1018.5 hPa North 14.8 km/h   75% 0 mm WeatherDisplay:10.37 W/m2 CLR
00:45 21.8 °C 17.4 °C 1018.5 hPa Calm     76% 0 mm WeatherDisplay:10.37 W/m2 CLR
00:50 21.7 °C 17.5 °C 1018.5 hPa Calm     77% 0 mm WeatherDisplay:10.37 W/m2 CLR
00:55 21.7 °C 17.4 °C 1018.5 hPa Calm     77% 0 mm WeatherDisplay:10.37 W/m2 CLR
01:00 21.6 °C 17.4 °C 1018.5 hPa North 14.8 km/h   77% 0 mm WeatherDisplay:10.37 W/m2 CLR
01:05 21.6 °C 17.3 °C 1018.5 hPa Calm     77% 0 mm WeatherDisplay:10.37 W/m2 CLR
01:10 21.5 °C 17.3 °C 1018.5 hPa Calm     77% 0 mm WeatherDisplay:10.37 W/m2 CLR
01:15 21.4 °C 17.4 °C 1018.5 hPa North 14.8 km/h   78% 0 mm WeatherDisplay:10.37 W/m2 CLR
01:16 21.4 °C 17.4 °C 1018.5 hPa North 14.8 km/h   78% 0 mm WeatherDisplay:10.37 W/m2 CLR
01:21 21.4 °C 17.4 °C 1018.5 hPa North 14.8 km/h   78% 0 mm WeatherDisplay:10.37 W/m2 FEW
01:26 21.4 °C 17.6 °C 1018.5 hPa North 14.8 km/h   79% 0 mm WeatherDisplay:10.37 W/m2 FEW
01:31 21.3 °C 17.6 °C 1018.5 hPa North 14.8 km/h   79% 0 mm WeatherDisplay:10.37 W/m2 FEW
01:36 21.3 °C 17.5 °C 1018.5 hPa North 14.8 km/h   79% 0 mm WeatherDisplay:10.37 W/m2 FEW
01:41 21.2 °C 17.4 °C 1018.5 hPa North 14.8 km/h   79% 0 mm WeatherDisplay:10.37 W/m2 FEW
01:46 21.2 °C 17.4 °C 1018.5 hPa North 14.8 km/h   79% 0 mm WeatherDisplay:10.37 W/m2 FEW
01:51 21.2 °C 17.6 °C 1018.5 hPa North 14.8 km/h   80% 0 mm WeatherDisplay:10.37 W/m2 FEW
01:56 21.1 °C 17.7 °C 1018.5 hPa North 14.8 km/h   81% 0 mm WeatherDisplay:10.37 W/m2 FEW
02:01 21.1 °C 17.3 °C 1018.5 hPa North 14.8 km/h   79% 0 mm WeatherDisplay:10.37 W/m2 FEW
02:06 20.9 °C 17.4 °C 1018.5 hPa North 14.8 km/h   80% 0 mm WeatherDisplay:10.37 W/m2 FEW
02:11 20.9 °C 17.6 °C 1018.5 hPa North 14.8 km/h   81% 0 mm WeatherDisplay:10.37 W/m2 FEW
02:16 20.9 °C 17.5 °C 1018.5 hPa North 14.8 km/h   81% 0 mm WeatherDisplay:10.37 W/m2 FEW
02:21 20.8 °C 17.4 °C 1018.5 hPa North 14.8 km/h   81% 0 mm WeatherDisplay:10.37 W/m2 CLR
02:26 20.8 °C 17.2 °C 1018.5 hPa North 14.8 km/h   80% 0 mm WeatherDisplay:10.37 W/m2 CLR
02:31 20.7 °C 17.2 °C 1018.5 hPa North 14.8 km/h   80% 0 mm WeatherDisplay:10.37 W/m2 CLR
02:37 20.7 °C 17.1 °C 1018.5 hPa North 14.8 km/h   80% 0 mm WeatherDisplay:10.37 W/m2 CLR
02:42 20.6 °C 17.2 °C 1018.5 hPa North 14.8 km/h   81% 0 mm WeatherDisplay:10.37 W/m2 CLR
02:47 20.5 °C 17.3 °C 1018.5 hPa North 14.8 km/h   82% 0 mm WeatherDisplay:10.37 W/m2 CLR
02:52 20.4 °C 17.3 °C 1018.5 hPa North 14.8 km/h   82% 0 mm WeatherDisplay:10.37 W/m2 CLR
02:57 20.3 °C 17.3 °C 1018.5 hPa North 14.8 km/h   83% 0 mm WeatherDisplay:10.37 W/m2 CLR
03:02 20.3 °C 17.3 °C 1018.5 hPa North 14.8 km/h   83% 0 mm WeatherDisplay:10.37 W/m2 CLR
03:07 20.2 °C 17.2 °C 1018.2 hPa North 14.8 km/h   83% 0 mm WeatherDisplay:10.37 W/m2 CLR
03:12 20.1 °C 17.1 °C 1018.2 hPa North 14.8 km/h   83% 0 mm WeatherDisplay:10.37 W/m2 CLR
03:17 19.9 °C 16.9 °C 1018.5 hPa North 14.8 km/h   83% 0 mm WeatherDisplay:10.37 W/m2 CLR
03:22 19.9 °C 16.9 °C 1018.5 hPa North 14.8 km/h   83% 0 mm WeatherDisplay:10.37 W/m2 CLR
03:27 19.9 °C 17.1 °C 1018.5 hPa North 14.8 km/h   84% 0 mm WeatherDisplay:10.37 W/m2 CLR
03:32 19.8 °C 17.1 °C 1018.5 hPa North 14.8 km/h   84% 0 mm WeatherDisplay:10.37 W/m2 CLR
03:37 19.8 °C 17.1 °C 1018.2 hPa North 14.8 km/h   84% 0 mm WeatherDisplay:10.37 W/m2 CLR
03:42 19.8 °C 17.2 °C 1018.2 hPa North 14.8 km/h   85% 0 mm WeatherDisplay:10.37 W/m2 CLR
03:47 19.8 °C 17.1 °C 1018.5 hPa North 14.8 km/h   84% 0 mm WeatherDisplay:10.37 W/m2 CLR
03:52 19.9 °C 17.3 °C 1018.5 hPa North 14.8 km/h   85% 0 mm WeatherDisplay:10.37 W/m2 CLR
03:58 19.9 °C 17.3 °C 1018.5 hPa North 14.8 km/h   85% 0 mm WeatherDisplay:10.37 W/m2 CLR
04:03 19.9 °C 17.1 °C 1018.5 hPa North 14.8 km/h   84% 0 mm WeatherDisplay:10.37 W/m2 CLR
04:08 19.8 °C 17.1 °C 1018.5 hPa North 14.8 km/h   84% 0 mm WeatherDisplay:10.37 W/m2 CLR
04:13 19.8 °C 17.2 °C 1018.5 hPa North 14.8 km/h   85% 0 mm WeatherDisplay:10.37 W/m2 CLR
04:18 19.7 °C 16.9 °C 1018.5 hPa North 14.8 km/h   84% 0 mm WeatherDisplay:10.37 W/m2 CLR
04:23 19.6 °C 17 °C 1018.5 hPa North 14.8 km/h   85% 0 mm WeatherDisplay:10.37 W/m2 SCT
04:28 19.6 °C 16.9 °C 1018.5 hPa North 14.8 km/h   85% 0 mm WeatherDisplay:10.37 W/m2 SCT
04:33 19.5 °C 16.9 °C 1018.5 hPa North 14.8 km/h   85% 0 mm WeatherDisplay:10.37 W/m2 SCT
04:38 19.5 °C 17.1 °C 1018.5 hPa North 14.8 km/h   86% 0 mm WeatherDisplay:10.37 W/m2 SCT
04:43 19.5 °C 16.9 °C 1018.2 hPa North 14.8 km/h   85% 0 mm WeatherDisplay:10.37 W/m2 SCT
04:48 19.5 °C 16.9 °C 1018.5 hPa North 14.8 km/h   85% 0 mm WeatherDisplay:10.37 W/m2 SCT
04:53 19.5 °C 16.9 °C 1018.5 hPa North 14.8 km/h   85% 0 mm WeatherDisplay:10.37 W/m2 SCT
04:58 19.4 °C 17.1 °C 1018.2 hPa North 14.8 km/h   86% 0 mm WeatherDisplay:10.37 W/m2 SCT
05:03 19.4 °C 17 °C 1018.2 hPa North 14.8 km/h   86% 0 mm WeatherDisplay:10.37 W/m2 SCT
05:09 19.3 °C 16.9 °C 1018.2 hPa North 14.8 km/h   86% 0 mm WeatherDisplay:10.37 W/m2 SCT
05:14 19.3 °C 16.9 °C 1018.2 hPa North 14.8 km/h   86% 0 mm WeatherDisplay:10.37 W/m2 SCT
05:19 19.3 °C 16.9 °C 1018.2 hPa North 14.8 km/h   86% 0 mm WeatherDisplay:10.37 W/m2 SCT
05:24 19.3 °C 16.9 °C 1018.2 hPa North 14.8 km/h   86% 0 mm WeatherDisplay:10.37 W/m2 FEW
05:29 19.3 °C 16.9 °C 1018.2 hPa North 14.8 km/h   86% 0 mm WeatherDisplay:10.37 W/m2 FEW
05:34 19.3 °C 16.9 °C 1018.5 hPa North 14.8 km/h   86% 0 mm WeatherDisplay:10.37 W/m2 FEW
05:39 19.3 °C 17.1 °C 1018.5 hPa North 14.8 km/h   87% 0 mm WeatherDisplay:10.37 W/m2 FEW
05:44 19.4 °C 17 °C 1018.5 hPa North 14.8 km/h   86% 0 mm WeatherDisplay:10.37 W/m2 FEW
05:49 19.4 °C 17 °C 1018.5 hPa North 14.8 km/h   86% 0 mm WeatherDisplay:10.37 W/m2 FEW
05:54 19.4 °C 17 °C 1018.5 hPa North 14.8 km/h   86% 0 mm WeatherDisplay:10.37 W/m2 FEW
05:59 19.4 °C 17 °C 1018.5 hPa North 14.8 km/h   86% 0 mm WeatherDisplay:10.37 W/m2 FEW
06:04 19.4 °C 17 °C 1018.5 hPa North 14.8 km/h   86% 0 mm WeatherDisplay:10.37 W/m2 FEW
06:09 19.4 °C 17 °C 1018.5 hPa North 14.8 km/h   86% 0 mm WeatherDisplay:10.37 W/m2 FEW
06:14 19.4 °C 17.2 °C 1018.5 hPa North 14.8 km/h   87% 0 mm WeatherDisplay:10.37 W/m2 FEW
06:19 19.4 °C 17 °C 1018.5 hPa North 14.8 km/h   86% 0 mm WeatherDisplay:10.37 W/m2 FEW
06:24 19.4 °C 17 °C 1018.5 hPa North 14.8 km/h   86% 0 mm WeatherDisplay:10.37 W/m2 CLR
06:29 19.4 °C 17 °C 1018.5 hPa North 14.8 km/h   86% 0 mm WeatherDisplay:10.37 W/m2 CLR
06:34 19.4 °C 17 °C 1018.5 hPa North 14.8 km/h   86% 0 mm WeatherDisplay:10.37 W/m2 CLR
06:39 19.4 °C 17.1 °C 1018.8 hPa North 14.8 km/h   86% 0 mm WeatherDisplay:10.37 W/m2 CLR
06:44 19.5 °C 17.1 °C 1018.8 hPa North 14.8 km/h   86% 0 mm WeatherDisplay:10.37 W/m2 CLR
06:49 19.5 °C 17.1 °C 1018.8 hPa North 14.8 km/h   86% 0 mm WeatherDisplay:10.37 W/m2 CLR
06:55 19.5 °C 17.1 °C 1018.8 hPa North 14.8 km/h   86% 0 mm WeatherDisplay:10.37 W/m2 CLR
07:00 19.6 °C 17.2 °C 1018.8 hPa North 14.8 km/h   86% 0 mm WeatherDisplay:10.37 W/m2 CLR
07:05 19.6 °C 17.2 °C 1019.2 hPa Calm     86% 0 mm WeatherDisplay:10.37 W/m2 CLR
07:10 19.6 °C 17.2 °C 1019.2 hPa Calm     86% 0 mm WeatherDisplay:10.37 W/m2 CLR
07:15 19.7 °C 17.3 °C 1019.2 hPa Calm     86% 0 mm WeatherDisplay:10.37 W/m2 CLR
07:20 19.7 °C 17.3 °C 1019.2 hPa Calm     86% 0 mm WeatherDisplay:10.37 W/m2 BKN
07:25 19.8 °C 17.4 °C 1019.2 hPa Calm     86% 0 mm WeatherDisplay:10.37 W/m2 BKN
07:30 19.8 °C 17.6 °C 1019.2 hPa Calm     87% 0 mm WeatherDisplay:10.37 W/m2 BKN
07:35 19.8 °C 17.6 °C 1019.2 hPa Calm     87% 0 mm WeatherDisplay:10.37 W/m2 BKN
07:40 19.9 °C 17.7 °C 1019.2 hPa Calm     87% 0 mm WeatherDisplay:10.37 W/m2 BKN
07:45 19.9 °C 17.7 °C 1019.5 hPa Calm     87% 0 mm WeatherDisplay:10.37 W/m2 BKN
07:50 19.9 °C 17.7 °C 1019.5 hPa North 14.8 km/h   87% 0 mm WeatherDisplay:10.37 W/m2 BKN
07:55 19.9 °C 17.7 °C 1019.5 hPa North 14.8 km/h   87% 0 mm WeatherDisplay:10.37 W/m2 BKN
08:00 20.1 °C 17.8 °C 1019.5 hPa North 14.8 km/h   87% 0 mm WeatherDisplay:10.37 W/m2 BKN
08:05 20.1 °C 18.1 °C 1019.5 hPa North 14.8 km/h   88% 0 mm WeatherDisplay:10.37 W/m2 BKN
08:10 20.2 °C 17.9 °C 1019.5 hPa North 14.8 km/h   87% 0 mm WeatherDisplay:10.37 W/m2 BKN
08:15 20.3 °C 18.1 °C 1019.5 hPa North 14.8 km/h   87% 0 mm WeatherDisplay:10.37 W/m2 BKN
08:20 20.3 °C 18.1 °C 1019.9 hPa Calm     87% 0 mm WeatherDisplay:10.37 W/m2 BKN
08:25 20.3 °C 18.1 °C 1019.9 hPa Calm     87% 0 mm WeatherDisplay:10.37 W/m2 BKN
08:30 20.4 °C 18.3 °C 1019.9 hPa Calm     88% 0 mm WeatherDisplay:10.37 W/m2 BKN
08:35 20.4 °C 18.2 °C 1019.9 hPa Calm     87% 0 mm WeatherDisplay:10.37 W/m2 BKN
08:40 20.6 °C 18.3 °C 1019.9 hPa Calm     87% 0 mm WeatherDisplay:10.37 W/m2 BKN
08:45 20.8 °C 18.7 °C 1019.9 hPa Calm     88% 0 mm WeatherDisplay:10.37 W/m2 BKN
08:50 21.1 °C 18.9 °C 1019.9 hPa Calm     87% 0 mm WeatherDisplay:10.37 W/m2 BKN
08:55 21.4 °C 18.8 °C 1019.9 hPa Calm     85% 0 mm WeatherDisplay:10.37 W/m2 BKN
09:00 21.7 °C 18.9 °C 1019.9 hPa Calm     84% 0 mm WeatherDisplay:10.37 W/m2 BKN
09:06 21.9 °C 18.9 °C 1019.9 hPa Calm     83% 0 mm WeatherDisplay:10.37 W/m2 BKN
09:11 22.1 °C 18.7 °C 1019.9 hPa Calm     81% 0 mm WeatherDisplay:10.37 W/m2 BKN
09:16 22.2 °C 18.9 °C 1019.9 hPa Calm     82% 0 mm WeatherDisplay:10.37 W/m2 BKN
09:21 22.2 °C 19 °C 1019.9 hPa Calm     82% 0 mm WeatherDisplay:10.37 W/m2 BKN
09:26 22.3 °C 19.3 °C 1019.9 hPa Calm     83% 0 mm WeatherDisplay:10.37 W/m2 BKN
09:31 22.4 °C 19 °C 1019.9 hPa Calm     81% 0 mm WeatherDisplay:10.37 W/m2 BKN
09:36 22.6 °C 19.1 °C 1019.9 hPa Calm     81% 0 mm WeatherDisplay:10.37 W/m2 BKN
09:41 22.7 °C 19.1 °C 1019.9 hPa Calm     80% 0 mm WeatherDisplay:10.37 W/m2 BKN
09:42 22.8 °C 19.2 °C 1019.9 hPa Calm     80% 0 mm WeatherDisplay:10.37 W/m2 BKN
09:47 23 °C 18.9 °C 1019.9 hPa Calm     78% 0 mm WeatherDisplay:10.37 W/m2 BKN
09:52 23.1 °C 19.1 °C 1019.9 hPa Calm     78% 0 mm WeatherDisplay:10.37 W/m2 BKN
09:57 23.2 °C 19.2 °C 1020.2 hPa Calm     78% 0 mm WeatherDisplay:10.37 W/m2 BKN
09:59 23.3 °C 19.2 °C 1019.9 hPa Calm     78% 0 mm WeatherDisplay:10.37 W/m2 BKN
10:05 23.4 °C 19.3 °C 1019.9 hPa Calm     78% 0 mm WeatherDisplay:10.37 W/m2 BKN
10:10 23.6 °C 19.3 °C 1019.9 hPa Calm     77% 0 mm WeatherDisplay:10.37 W/m2 BKN
10:15 23.9 °C 19.4 °C 1019.9 hPa Calm     76% 0 mm WeatherDisplay:10.37 W/m2 BKN
10:20 24.2 °C 19.1 °C 1019.9 hPa Calm     73% 0 mm WeatherDisplay:10.37 W/m2 OVC
10:25 24.5 °C 19.1 °C 1019.9 hPa Calm     72% 0 mm WeatherDisplay:10.37 W/m2 OVC
10:30 24.7 °C 19.1 °C 1019.9 hPa Calm   1.6 km/h 71% 0 mm WeatherDisplay:10.37 W/m2 OVC
10:35 24.9 °C 19.1 °C 1019.9 hPa Calm   1.6 km/h 70% 0 mm WeatherDisplay:10.37 W/m2 OVC
10:40 25.2 °C 18.9 °C 1019.9 hPa NNW 1.9 km/h   68% 0 mm WeatherDisplay:10.37 W/m2 OVC
10:45 25.6 °C 19.7 °C 1020.2 hPa NNW 1.9 km/h   70% 0 mm WeatherDisplay:10.37 W/m2 OVC
10:50 25.7 °C 18.2 °C 1020.2 hPa NNW 1.9 km/h   63% 0 mm WeatherDisplay:10.37 W/m2 OVC
10:55 25.8 °C 19 °C 1020.2 hPa NNW 1.9 km/h   66% 0 mm WeatherDisplay:10.37 W/m2 OVC
10:58 25.9 °C 19.1 °C 1020.2 hPa NNW 1.9 km/h   66% 0 mm WeatherDisplay:10.37 W/m2 OVC
11:03 26.1 °C 19.2 °C 1020.2 hPa NNW 1.9 km/h   66% 0 mm WeatherDisplay:10.37 W/m2 OVC
11:08 26.1 °C 18.8 °C 1020.2 hPa NNW 1.9 km/h   64% 0 mm WeatherDisplay:10.37 W/m2 OVC
11:13 26.2 °C 19.1 °C 1020.2 hPa NNW 1.9 km/h   65% 0 mm WeatherDisplay:10.37 W/m2 OVC
11:18 26.1 °C 19.5 °C 1020.5 hPa NNW 1.9 km/h   67% 0 mm WeatherDisplay:10.37 W/m2 OVC
11:23 26.1 °C 19.2 °C 1020.5 hPa NNW 1.9 km/h   66% 0 mm WeatherDisplay:10.37 W/m2 OVC
11:28 26.1 °C 19.7 °C 1020.5 hPa NNW 1.9 km/h   68% 0 mm WeatherDisplay:10.37 W/m2 OVC
11:33 26.2 °C 19.4 °C 1020.5 hPa NNW 1.9 km/h   66% 0 mm WeatherDisplay:10.37 W/m2 OVC
11:38 26.2 °C 19.1 °C 1020.2 hPa NNW 1.9 km/h   65% 0 mm WeatherDisplay:10.37 W/m2 OVC
11:43 26.2 °C 19.1 °C 1020.2 hPa NNW 1.9 km/h   65% 0 mm WeatherDisplay:10.37 W/m2 OVC
11:48 26.1 °C 19.7 °C 1020.2 hPa NNW 1.9 km/h   68% 0 mm WeatherDisplay:10.37 W/m2 OVC
11:53 26 °C 19.2 °C 1019.9 hPa NNW 1.9 km/h 1.9 km/h 66% 0 mm WeatherDisplay:10.37 W/m2 OVC
11:58 25.9 °C 18.8 °C 1019.9 hPa NNW 1.9 km/h   65% 0 mm WeatherDisplay:10.37 W/m2 OVC
12:04 26.1 °C 19.2 °C 1019.9 hPa NNW 1.9 km/h   66% 0 mm WeatherDisplay:10.37 W/m2 OVC
12:09 26.2 °C 19.1 °C 1019.5 hPa NNW 1.9 km/h   65% 0 mm WeatherDisplay:10.37 W/m2 OVC
12:14 26.2 °C 18.6 °C 1019.9 hPa NNW 1.9 km/h   63% 0 mm WeatherDisplay:10.37 W/m2 OVC
12:19 26.1 °C 18.3 °C 1019.5 hPa NNW 1.9 km/h   62% 0 mm WeatherDisplay:10.37 W/m2 OVC
12:24 26.2 °C 18.6 °C 1019.5 hPa NNW 1.9 km/h   63% 0 mm WeatherDisplay:10.37 W/m2 OVC
12:29 26.2 °C 17.8 °C 1019.9 hPa NNW 1.9 km/h   60% 0 mm WeatherDisplay:10.37 W/m2 OVC
12:34 26.4 °C 18 °C 1019.9 hPa NNW 1.9 km/h   60% 0 mm WeatherDisplay:10.37 W/m2 OVC
12:39 26.4 °C 18.6 °C 1019.9 hPa NNW 1.9 km/h   62% 0 mm WeatherDisplay:10.37 W/m2 OVC
12:44 26.5 °C 19.4 °C 1019.9 hPa NNW 1.9 km/h   65% 0 mm WeatherDisplay:10.37 W/m2 OVC
12:49 26.4 °C 19.3 °C 1019.9 hPa NNW 1.9 km/h   65% 0 mm WeatherDisplay:10.37 W/m2 OVC
12:54 26.2 °C 19.1 °C 1019.5 hPa NNW 1.9 km/h   65% 0 mm WeatherDisplay:10.37 W/m2 OVC
13:00 26.2 °C 19.6 °C 1019.9 hPa Calm     67% 0 mm WeatherDisplay:10.37 W/m2 OVC
13:05 26.5 °C 18.3 °C 1019.9 hPa Calm   1.6 km/h 61% 0 mm WeatherDisplay:10.37 W/m2 OVC
13:10 26.8 °C 18.4 °C 1019.9 hPa Calm   1.6 km/h 60% 0 mm WeatherDisplay:10.37 W/m2 OVC
13:15 27.1 °C 18.6 °C 1019.9 hPa Calm     60% 0 mm WeatherDisplay:10.37 W/m2 OVC
13:20 27.2 °C 19.1 °C 1019.9 hPa Calm     61% 0 mm WeatherDisplay:10.37 W/m2 BKN
13:25 27.8 °C 19.3 °C 1019.9 hPa Calm     60% 0 mm WeatherDisplay:10.37 W/m2 BKN
13:30 28 °C 18.1 °C 1019.9 hPa Calm   1.6 km/h 55% 0 mm WeatherDisplay:10.37 W/m2 BKN
13:35 28.1 °C 17.6 °C 1019.9 hPa Calm     53% 0 mm WeatherDisplay:10.37 W/m2 BKN
13:40 28.2 °C 17.7 °C 1019.9 hPa Calm   1.6 km/h 53% 0 mm WeatherDisplay:10.37 W/m2 BKN
13:45 28.3 °C 18.7 °C 1019.9 hPa Calm   1.6 km/h 56% 0 mm WeatherDisplay:10.37 W/m2 BKN
13:50 28.4 °C 18.8 °C 1019.9 hPa NNW 1.9 km/h   56% 0 mm WeatherDisplay:10.37 W/m2 BKN
13:55 28.8 °C 18.3 °C 1019.5 hPa WNW 1.9 km/h 1.9 km/h 53% 0 mm WeatherDisplay:10.37 W/m2 BKN
14:00 29.2 °C 18.6 °C 1019.5 hPa West 1.9 km/h   53% 0 mm WeatherDisplay:10.37 W/m2 BKN
14:05 29.2 °C 17.4 °C 1019.5 hPa SE 3.7 km/h 3.7 km/h 49% 0 mm WeatherDisplay:10.37 W/m2 BKN
14:10 29.4 °C 17.6 °C 1019.5 hPa West 3.7 km/h   49% 0 mm WeatherDisplay:10.37 W/m2 BKN
14:15 29.5 °C 17.7 °C 1019.5 hPa WNW 3.7 km/h 3.7 km/h 49% 0 mm WeatherDisplay:10.37 W/m2 BKN
14:20 29.5 °C 18 °C 1019.5 hPa WNW 3.7 km/h   50% 0 mm WeatherDisplay:10.37 W/m2 BKN
14:25 29.3 °C 16.8 °C 1019.5 hPa West 3.7 km/h   47% 0 mm WeatherDisplay:10.37 W/m2 BKN
14:30 29.2 °C 16.7 °C 1019.5 hPa WNW 3.7 km/h   47% 0 mm WeatherDisplay:10.37 W/m2 BKN
14:35 29.2 °C 17.3 °C 1019.5 hPa NNE 3.7 km/h 3.7 km/h 49% 0 mm WeatherDisplay:10.37 W/m2 BKN
14:40 29 °C 17.2 °C 1019.2 hPa NW 3.7 km/h   49% 0 mm WeatherDisplay:10.37 W/m2 BKN
14:45 28.8 °C 16.3 °C 1019.2 hPa WSW 3.7 km/h 3.7 km/h 47% 0 mm WeatherDisplay:10.37 W/m2 BKN
14:50 28.6 °C 16.8 °C 1019.2 hPa West 3.7 km/h   49% 0 mm WeatherDisplay:10.37 W/m2 BKN
14:55 28.6 °C 17.7 °C 1019.2 hPa SSW 3.7 km/h 3.7 km/h 52% 0 mm WeatherDisplay:10.37 W/m2 BKN
15:01 28.7 °C 16.3 °C 1018.8 hPa NE 3.7 km/h 3.7 km/h 47% 0 mm WeatherDisplay:10.37 W/m2 BKN
15:06 28.7 °C 17.3 °C 1018.8 hPa NW 3.7 km/h   50% 0 mm WeatherDisplay:10.37 W/m2 BKN
15:11 28.7 °C 16.6 °C 1018.8 hPa NW 3.7 km/h   48% 0 mm WeatherDisplay:10.37 W/m2 BKN
15:16 28.7 °C 15.9 °C 1018.8 hPa NNW 3.7 km/h 3.7 km/h 46% 0 mm WeatherDisplay:10.37 W/m2 BKN
15:21 28.6 °C 16.8 °C 1019.2 hPa NNW 3.7 km/h   49% 0 mm WeatherDisplay:10.37 W/m2 BKN
15:26 28.7 °C 15.9 °C 1018.8 hPa NNW 3.7 km/h   46% 0 mm WeatherDisplay:10.37 W/m2 BKN
15:31 28.7 °C 16.9 °C 1018.8 hPa WNW 3.7 km/h   49% 0 mm WeatherDisplay:10.37 W/m2 BKN
15:36 28.7 °C 16.2 °C 1018.8 hPa WNW 3.7 km/h 3.7 km/h 47% 0 mm WeatherDisplay:10.37 W/m2 BKN
15:41 28.5 °C 15.1 °C 1018.8 hPa North 3.7 km/h   44% 0 mm WeatherDisplay:10.37 W/m2 BKN
15:46 28.3 °C 15.3 °C 1018.8 hPa WNW 3.7 km/h   45% 0 mm WeatherDisplay:10.37 W/m2 BKN
15:51 28.3 °C 15.9 °C 1018.8 hPa WNW 3.7 km/h 3.7 km/h 47% 0 mm WeatherDisplay:10.37 W/m2 BKN
15:56 28.4 °C 15.7 °C 1018.8 hPa WNW 3.7 km/h   46% 0 mm WeatherDisplay:10.37 W/m2 BKN
15:59 28.4 °C 14.9 °C 1018.5 hPa WNW 3.7 km/h   44% 0 mm WeatherDisplay:10.37 W/m2 BKN
16:04 28.4 °C 16.3 °C 1018.5 hPa WNW 3.7 km/h   48% 0 mm WeatherDisplay:10.37 W/m2 BKN
16:09 28.3 °C 15.6 °C 1018.5 hPa NE 3.7 km/h   46% 0 mm WeatherDisplay:10.37 W/m2 BKN
16:14 28.2 °C 17.1 °C 1018.5 hPa NE 3.7 km/h   51% 0 mm WeatherDisplay:10.37 W/m2 BKN
16:15 28.2 °C 16.1 °C 1018.5 hPa NE 3.7 km/h   48% 0 mm WeatherDisplay:10.37 W/m2 BKN
16:20 28.1 °C 16 °C 1018.5 hPa NE 3.7 km/h   48% 0 mm WeatherDisplay:10.37 W/m2 BKN
16:25 28.1 °C 16.7 °C 1018.5 hPa NE 3.7 km/h   50% 0 mm WeatherDisplay:10.37 W/m2 BKN
16:30 27.9 °C 17.7 °C 1018.2 hPa NE 3.7 km/h   54% 0 mm WeatherDisplay:10.37 W/m2 BKN
16:35 27.6 °C 17.2 °C 1018.2 hPa NE 3.7 km/h   53% 0 mm WeatherDisplay:10.37 W/m2 BKN
16:40 27.4 °C 17.3 °C 1018.2 hPa NE 3.7 km/h   54% 0 mm WeatherDisplay:10.37 W/m2 BKN
16:45 27.3 °C 16.6 °C 1018.2 hPa NE 3.7 km/h   52% 0 mm WeatherDisplay:10.37 W/m2 BKN
16:50 27.2 °C 16.2 °C 1018.2 hPa NE 3.7 km/h   51% 0 mm WeatherDisplay:10.37 W/m2 BKN
16:55 27.4 °C 17.6 °C 1018.2 hPa NE 3.7 km/h   55% 0 mm WeatherDisplay:10.37 W/m2 BKN
17:00 27.5 °C 16.4 °C 1018.2 hPa NE 3.7 km/h   51% 0 mm WeatherDisplay:10.37 W/m2 BKN
17:05 27.6 °C 17.2 °C 1018.5 hPa NE 3.7 km/h   53% 0 mm WeatherDisplay:10.37 W/m2 BKN
17:10 27.6 °C 17.4 °C 1018.2 hPa NNE 3.7 km/h   54% 0 mm WeatherDisplay:10.37 W/m2 BKN
17:16 27.5 °C 17.7 °C 1018.2 hPa NNE 3.7 km/h   55% 0 mm WeatherDisplay:10.37 W/m2 BKN
17:21 27.7 °C 16.9 °C 1018.2 hPa NNE 3.7 km/h   52% 0 mm WeatherDisplay:10.37 W/m2 BKN
17:26 28 °C 15.3 °C 1018.2 hPa NNE 3.7 km/h   46% 0 mm WeatherDisplay:10.37 W/m2 BKN
17:31 28.2 °C 17.1 °C 1018.2 hPa NNE 3.7 km/h   51% 0 mm WeatherDisplay:10.37 W/m2 BKN
17:36 28.1 °C 17.6 °C 1018.2 hPa NNE 3.7 km/h   53% 0 mm WeatherDisplay:10.37 W/m2 BKN
17:41 27.6 °C 17.8 °C 1018.2 hPa NNE 3.7 km/h   55% 0 mm WeatherDisplay:10.37 W/m2 BKN
17:46 27.2 °C 17.4 °C 1018.2 hPa NNE 3.7 km/h   55% 0 mm WeatherDisplay:10.37 W/m2 BKN
17:51 26.9 °C 17.4 °C 1018.2 hPa NNE 3.7 km/h   56% 0 mm WeatherDisplay:10.37 W/m2 BKN
17:56 26.7 °C 17.5 °C 1018.2 hPa NNE 3.7 km/h   57% 0 mm WeatherDisplay:10.37 W/m2 BKN
18:01 26.5 °C 17 °C 1018.2 hPa NNE 3.7 km/h   56% 0 mm WeatherDisplay:10.37 W/m2 BKN
18:06 26.2 °C 17.1 °C 1018.2 hPa NNE 3.7 km/h   57% 0 mm WeatherDisplay:10.37 W/m2 BKN
18:11 26.1 °C 16.9 °C 1017.8 hPa NNE 3.7 km/h   57% 0 mm WeatherDisplay:10.37 W/m2 BKN
18:16 26 °C 16.8 °C 1017.8 hPa NNE 3.7 km/h   57% 0 mm WeatherDisplay:10.37 W/m2 BKN
18:21 25.9 °C 17 °C 1017.8 hPa NNE 3.7 km/h   58% 0 mm WeatherDisplay:10.37 W/m2 OVC
18:26 25.8 °C 17.2 °C 1017.8 hPa NNE 3.7 km/h   59% 0 mm WeatherDisplay:10.37 W/m2 OVC
18:31 25.8 °C 17.2 °C 1017.5 hPa NNE 3.7 km/h   59% 0 mm WeatherDisplay:10.37 W/m2 OVC
18:36 25.7 °C 17.4 °C 1017.5 hPa NNE 3.7 km/h   60% 0 mm WeatherDisplay:10.37 W/m2 OVC
18:41 25.7 °C 17.4 °C 1017.5 hPa NNE 3.7 km/h   60% 0 mm WeatherDisplay:10.37 W/m2 OVC
18:46 25.7 °C 17.6 °C 1017.5 hPa NNE 3.7 km/h   61% 0 mm WeatherDisplay:10.37 W/m2 OVC
18:52 25.6 °C 17.8 °C 1017.5 hPa NNE 3.7 km/h   62% 0 mm WeatherDisplay:10.37 W/m2 OVC
18:57 25.4 °C 17.4 °C 1017.5 hPa NNE 3.7 km/h   61% 0 mm WeatherDisplay:10.37 W/m2 OVC
19:02 25.3 °C 17.5 °C 1017.5 hPa NNE 3.7 km/h   62% 0 mm WeatherDisplay:10.37 W/m2 OVC
19:07 25.2 °C 17.4 °C 1017.2 hPa NNE 3.7 km/h   62% 0 mm WeatherDisplay:10.37 W/m2 OVC
19:12 25.2 °C 17.4 °C 1017.2 hPa NNE 3.7 km/h   62% 0 mm WeatherDisplay:10.37 W/m2 OVC
19:17 25.2 °C 17.4 °C 1017.5 hPa NNE 3.7 km/h   62% 0 mm WeatherDisplay:10.37 W/m2 OVC
19:22 25.1 °C 17.6 °C 1017.5 hPa NNE 3.7 km/h   63% 0 mm WeatherDisplay:10.37 W/m2 BKN
19:27 25.1 °C 17.6 °C 1017.5 hPa NNE 3.7 km/h   63% 0 mm WeatherDisplay:10.37 W/m2 BKN
19:32 25.1 °C 17.5 °C 1017.5 hPa NNE 3.7 km/h   63% 0 mm WeatherDisplay:10.37 W/m2 BKN
19:37 24.9 °C 17.4 °C 1017.5 hPa NNE 3.7 km/h   63% 0 mm WeatherDisplay:10.37 W/m2 BKN
19:42 24.9 °C 17.3 °C 1017.8 hPa NNE 3.7 km/h   63% 0 mm WeatherDisplay:10.37 W/m2 BKN
19:47 24.8 °C 17.8 °C 1017.5 hPa NNE 3.7 km/h   65% 0 mm WeatherDisplay:10.37 W/m2 BKN
19:52 24.7 °C 17.7 °C 1017.8 hPa NNE 3.7 km/h   65% 0 mm WeatherDisplay:10.37 W/m2 BKN
19:57 24.7 °C 17.9 °C 1017.5 hPa NNE 3.7 km/h   66% 0 mm WeatherDisplay:10.37 W/m2 BKN
20:02 24.6 °C 18.1 °C 1017.5 hPa NNE 3.7 km/h   67% 0 mm WeatherDisplay:10.37 W/m2 BKN
20:07 24.6 °C 17.8 °C 1017.8 hPa NNE 3.7 km/h   66% 0 mm WeatherDisplay:10.37 W/m2 BKN
20:09 24.5 °C 17.9 °C 1017.8 hPa NNE 3.7 km/h   67% 0 mm WeatherDisplay:10.37 W/m2 BKN
20:14 24.4 °C 17.9 °C 1017.8 hPa NNE 3.7 km/h   67% 0 mm WeatherDisplay:10.37 W/m2 BKN
20:19 24.4 °C 18.1 °C 1017.8 hPa NNE 3.7 km/h   68% 0 mm WeatherDisplay:10.37 W/m2 BKN
20:24 24.3 °C 18 °C 1017.8 hPa NNE 3.7 km/h   68% 0 mm WeatherDisplay:10.37 W/m2 BKN
20:29 24.2 °C 18.1 °C 1017.8 hPa NNE 3.7 km/h   69% 0 mm WeatherDisplay:10.37 W/m2 BKN
20:34 24.1 °C 18 °C 1017.8 hPa NNE 3.7 km/h   69% 0 mm WeatherDisplay:10.37 W/m2 OVC
20:36 24 °C 17.9 °C 1017.8 hPa NNE 3.7 km/h   69% 0 mm WeatherDisplay:10.37 W/m2 OVC
20:39 24 °C 17.9 °C 1017.8 hPa NNE 3.7 km/h   69% 0 mm WeatherDisplay:10.37 W/m2 OVC
20:44 24 °C 17.9 °C 1017.8 hPa NNE 3.7 km/h   69% 0 mm WeatherDisplay:10.37 W/m2 OVC
20:50 23.7 °C 17.9 °C 1017.8 hPa Calm     70% 0 mm WeatherDisplay:10.37 W/m2 OVC
20:55 23.6 °C 18 °C 1017.8 hPa Calm     71% 0 mm WeatherDisplay:10.37 W/m2 OVC
21:00 23.4 °C 17.9 °C 1018.2 hPa Calm     71% 0 mm WeatherDisplay:10.37 W/m2 OVC
21:05 23.3 °C 18 °C 1017.8 hPa Calm     72% 0 mm WeatherDisplay:10.37 W/m2 OVC
21:10 23.3 °C 18.2 °C 1018.2 hPa Calm     73% 0 mm WeatherDisplay:10.37 W/m2 OVC
21:15 23.2 °C 18.3 °C 1018.2 hPa Calm     74% 0 mm WeatherDisplay:10.37 W/m2 OVC
21:20 23.1 °C 18.4 °C 1018.2 hPa Calm     75% 0 mm WeatherDisplay:10.37 W/m2 BKN
21:25 22.9 °C 18.3 °C 1018.5 hPa Calm     75% 0 mm WeatherDisplay:10.37 W/m2 BKN
21:30 22.9 °C 18.2 °C 1018.5 hPa Calm     75% 0 mm WeatherDisplay:10.37 W/m2 BKN
21:35 22.8 °C 18.4 °C 1018.5 hPa Calm     76% 0 mm WeatherDisplay:10.37 W/m2 BKN
21:40 22.8 °C 18.6 °C 1018.5 hPa Calm     77% 0 mm WeatherDisplay:10.37 W/m2 BKN
21:45 22.7 °C 18.5 °C 1018.5 hPa Calm     77% 0 mm WeatherDisplay:10.37 W/m2 BKN
21:55 22.5 °C 18.4 °C 1018.5 hPa Calm     78% 0 mm WeatherDisplay:10.37 W/m2 BKN
22:00 22.4 °C 18.4 °C 1018.8 hPa Calm     78% 0 mm WeatherDisplay:10.37 W/m2 BKN
22:05 22.4 °C 18.2 °C 1018.8 hPa Calm     77% 0 mm WeatherDisplay:10.37 W/m2 BKN
22:10 22.4 °C 18.4 °C 1018.8 hPa Calm     78% 0 mm WeatherDisplay:10.37 W/m2 BKN
22:15 22.4 °C 18.6 °C 1018.8 hPa Calm     79% 0 mm WeatherDisplay:10.37 W/m2 BKN
22:20 22.3 °C 18.5 °C 1019.2 hPa Calm     79% 0 mm WeatherDisplay:10.37 W/m2 BKN
22:25 22.3 °C 18.4 °C 1019.2 hPa Calm     79% 0 mm WeatherDisplay:10.37 W/m2 BKN
22:30 22.2 °C 18.6 °C 1019.2 hPa Calm     80% 0 mm WeatherDisplay:10.37 W/m2 BKN
22:35 22.2 °C 18.8 °C 1019.2 hPa Calm     81% 0 mm WeatherDisplay:10.37 W/m2 BKN
22:40 22.1 °C 18.7 °C 1019.2 hPa Calm     81% 0 mm WeatherDisplay:10.37 W/m2 BKN
22:45 22.1 °C 18.5 °C 1019.2 hPa Calm     80% 0 mm WeatherDisplay:10.37 W/m2 BKN
22:50 22.1 °C 18.7 °C 1019.5 hPa Calm     81% 0 mm WeatherDisplay:10.37 W/m2 BKN
22:55 22 °C 18.6 °C 1019.5 hPa Calm     81% 0 mm WeatherDisplay:10.37 W/m2 BKN
23:00 21.9 °C 18.3 °C 1019.5 hPa Calm     80% 0 mm WeatherDisplay:10.37 W/m2 BKN
23:05 21.9 °C 18.5 °C 1019.5 hPa Calm     81% 0 mm WeatherDisplay:10.37 W/m2 BKN
23:10 21.8 °C 18.4 °C 1019.5 hPa Calm     81% 0 mm WeatherDisplay:10.37 W/m2 BKN
23:20 21.8 °C 18.4 °C 1019.5 hPa Calm     81% 0 mm WeatherDisplay:10.37 W/m2 OVC
23:25 21.8 °C 18.4 °C 1019.5 hPa Calm     81% 0 mm WeatherDisplay:10.37 W/m2 OVC
23:30 21.8 °C 18.6 °C 1019.5 hPa Calm     82% 0 mm WeatherDisplay:10.37 W/m2 OVC
23:35 21.7 °C 18.3 °C 1019.5 hPa Calm     81% 0 mm WeatherDisplay:10.37 W/m2 OVC
23:40 21.7 °C 18.4 °C 1019.5 hPa Calm     82% 0 mm WeatherDisplay:10.37 W/m2 OVC
23:50 21.6 °C 18.6 °C 1019.5 hPa Calm     83% 0 mm WeatherDisplay:10.37 W/m2 OVC
23:55 21.6 °C 18.6 °C 1019.5 hPa Calm     83% 0 mm WeatherDisplay:10.37 W/m2 OVC
Piedmont Bend
Compliments of Weather Underground - 4 mb